Mildenhall RAF, United Kingdom

1:26 AM BST on April 24, 2017 (GMT +0100)
Mildenhall Air Base

Weather History for EGUN - October, 2013

Change the Weather History Date:

Saturday, October 5, 2013

  Actual Average Record
Temperature  
Mean Temperature 56 °F -  
Max Temperature 65 °F - - ()
Min Temperature 47 °F - - ()
Degree Days  
Heating Degree Days 10    
Growing Degree Days 6 (Base 50)    
Moisture  
Dew Point 53 °F    
Average Humidity 83    
Maximum Humidity 94    
Minimum Humidity 60    
Precipitation  
Precipitation 0.00 in - - ()
Sea Level Pressure  
Sea Level Pressure 30.09 in    
Wind  
Wind Speed 5 mph ()    
Max Wind Speed 9 mph    
Max Gust Speed -    
Visibility 6.2 miles    
Events      
T = Trace of Precipitation, MM = Missing Value Source: Averaged Metar Reports

Daily Weather History Graph

Daily Weather History Graph

Search for Another Location

Airport or City:

Trip Planner

Search our weather history database for the weather conditions in past years. The results will help you decide how hot, cold, wet, or windy it might be!

Date:

Astronomy

Oct. 05, 2013 Rise Set
Actual Time 7:06 AM BST 6:25 PM BST
Civil Twilight 6:32 AM BST 6:59 PM BST
Nautical Twilight 5:52 AM BST 7:39 PM BST
Astronomical Twilight 5:12 AM BST 8:19 PM BST
Moon 7:37 AM BST (10/5) 6:24 PM BST (10/5)
Length of Visible Light 12h 27m
Length of Day
11h 19m
New Moon, 0% of the Moon is Illuminated
Oct 5
New Moon
Oct 12
First Quarter
Oct 19
Full
Oct 27
Last Quarter
Nov 3
New

Hourly Weather History & Observations

Time (BST) Temp. Dew Point Humidity Pressure Visibility Wind Dir Wind Speed Gust Speed Precip Events Conditions
12:58 AM 58.1 °F 54.9 °F 89% 29.94 in 6.2 mi West 8.1 mph - N/A   Overcast
1:17 AM 57.2 °F 55.4 °F 94% 29.93 in 6.2 mi West 6.9 mph - N/A   Overcast
1:41 AM 57.2 °F 55.4 °F 94% 29.94 in 6.2 mi SW 4.6 mph - N/A   Overcast
1:58 AM 57.9 °F 55.0 °F 90% 29.96 in 6.2 mi SW 4.6 mph - N/A   Overcast
2:24 AM 57.2 °F 55.4 °F 94% 29.95 in 6.2 mi WSW 4.6 mph - N/A   Overcast
2:29 AM 57.2 °F 55.4 °F 94% 29.95 in 6.2 mi WSW 5.8 mph - N/A   Overcast
2:58 AM 57.9 °F 55.0 °F 90% 29.96 in 6.2 mi WSW 4.6 mph - N/A   Overcast
3:58 AM 57.7 °F 55.0 °F 91% 29.97 in 6.2 mi WSW 4.6 mph - N/A   Overcast
4:30 AM 57.2 °F 55.4 °F 94% 29.97 in 6.2 mi West 5.8 mph - N/A   Overcast
4:58 AM 57.2 °F 54.5 °F 91% 29.99 in 6.2 mi WSW 4.6 mph - N/A   Overcast
4:59 AM 57.2 °F 55.4 °F 94% 29.98 in 6.2 mi West 4.6 mph - N/A   Overcast
5:58 AM 57.2 °F 54.5 °F 91% 30.01 in 6.2 mi SW 2.3 mph - N/A   Overcast
6:58 AM 56.7 °F 54.7 °F 93% 30.03 in 6.2 mi WSW 3.5 mph - N/A   Overcast
7:30 AM 57.2 °F 55.4 °F 94% 30.03 in 6.2 mi WSW 4.6 mph - N/A   Overcast
7:34 AM 57.2 °F 55.4 °F 94% 30.03 in 6.2 mi SW 3.5 mph - N/A   Overcast
7:49 AM 57.2 °F 55.4 °F 94% 30.04 in 6.2 mi WSW 4.6 mph - N/A   Overcast
7:50 AM 57.2 °F 55.4 °F 94% 30.04 in 6.2 mi WSW 4.6 mph - N/A   Overcast
7:58 AM 57.2 °F 55.4 °F 94% 30.05 in 6.2 mi SW 3.5 mph - N/A   Overcast
8:58 AM 57.9 °F 55.8 °F 92% 30.08 in 6.2 mi WSW 5.8 mph - N/A   Overcast
9:55 AM 59.0 °F 55.4 °F 88% 30.08 in 6.2 mi West 6.9 mph - N/A   Overcast
9:58 AM 59.2 °F 56.1 °F 90% 30.09 in 6.2 mi West 5.8 mph - N/A   Overcast
10:58 AM 61.9 °F 55.6 °F 80% 30.11 in 6.2 mi NW 5.8 mph - N/A   Overcast
11:48 AM 62.6 °F 55.4 °F 77% 30.11 in 6.2 mi NW 8.1 mph - N/A   Overcast
11:58 AM 63.3 °F 54.9 °F 74% 30.12 in 6.2 mi NW 5.8 mph - N/A   Overcast
12:58 PM 64.9 °F 53.2 °F 66% 30.13 in 6.2 mi WNW 5.8 mph - N/A   Overcast
1:40 PM 64.4 °F 53.6 °F 68% 30.13 in 6.2 mi WNW 4.6 mph - N/A   Overcast
1:44 PM 64.4 °F 53.6 °F 68% 30.13 in 6.2 mi NNW 4.6 mph - N/A   Overcast
1:47 PM 64.4 °F 53.6 °F 68% 30.13 in 6.2 mi NW 5.8 mph - N/A   Overcast
1:52 PM 64.4 °F 51.8 °F 64% 30.13 in 6.2 mi NW 6.9 mph - N/A   Overcast
1:58 PM 64.0 °F 52.5 °F 66% 30.14 in 6.2 mi NW 6.9 mph - N/A   Overcast
2:58 PM 62.4 °F 54.3 °F 75% 30.16 in 6.2 mi WNW 6.9 mph - N/A   Overcast
3:32 PM 64.4 °F 53.6 °F 68% 30.15 in 6.2 mi NW 9.2 mph - N/A   Overcast
3:58 PM 64.0 °F 50.0 °F 60% 30.17 in 6.2 mi NW 9.2 mph - N/A   Overcast
4:58 PM 63.1 °F 50.4 °F 63% 30.17 in 6.2 mi WNW 4.6 mph - N/A   Overcast
5:58 PM 60.4 °F 51.3 °F 72% 30.19 in 6.2 mi WNW 5.8 mph - N/A   Clear
6:33 PM 57.2 °F 50.0 °F 77% 30.19 in 6.2 mi WNW 5.8 mph - N/A   Mostly Cloudy
6:54 PM 57.2 °F 50.0 °F 77% 30.19 in 6.2 mi NW 5.8 mph - N/A   Overcast
6:58 PM 57.9 °F 50.4 °F 76% 30.21 in 6.2 mi NW 5.8 mph - N/A   Overcast
7:00 PM 59.0 °F 50.0 °F 72% 30.20 in 6.2 mi NW 4.6 mph - N/A   Overcast
7:16 PM 57.2 °F 50.0 °F 77% 30.20 in 6.2 mi NW 4.6 mph - N/A   Mostly Cloudy
7:58 PM 55.8 °F 49.3 °F 79% 30.22 in 6.2 mi West 2.3 mph - N/A   Clear
8:58 PM 52.2 °F 47.3 °F 83% 30.23 in 6.2 mi Calm Calm - N/A   Clear
9:58 PM 50.2 °F 47.1 °F 89% 30.24 in 6.2 mi SSW 2.3 mph - N/A   Clear
10:58 PM 47.8 °F 46.2 °F 94% 30.25 in 6.2 mi South 1.2 mph - N/A   Clear
11:58 PM 47.1 °F 45.3 °F 93% 30.25 in 6.2 mi South 2.3 mph - N/A   Clear